When you browse on this site, cookies collect data to enhance your experience and personalize the content and advertising you see.
Visit our Privacy Policy to learn more. By continuing to use the site, you agree to this use of cookies and data.
  • In Romania
  • List of Countries
  • For 7 days
  • Water Temperature
  • Weather Map
  • Weather Widgets
  • user-avatar
    Login

    Hourly Weather Konakry

    Today, 21 August, Wednesday

    Time Temperature Precipitation Wind Pressure Humidity
    00:00 +26°C° 1.1 mm 3 mps 756 mmHg 92%
    01:00 +26°C° 1.1 mm 3 mps 756 mmHg 92%
    02:00 +26°C° 1.1 mm 4 mps 755 mmHg 92%
    03:00 +26°C° 0.7 mm 4 mps 755 mmHg 92%
    04:00 +26°C° 0.7 mm 3 mps 755 mmHg 92%
    05:00 +26°C° 0.7 mm 3 mps 755 mmHg 91%
    06:00 +27°C° 1.4 mm 3 mps 755 mmHg 88%
    07:00 +27°C° 1.4 mm 2 mps 756 mmHg 86%
    08:00 +28°C° 1.4 mm 2 mps 756 mmHg 83%
    09:00 +29°C° 0.9 mm 2 mps 756 mmHg 82%
    10:00 +29°C° 0.9 mm 3 mps 756 mmHg 80%
    11:00 +29°C° 0.9 mm 4 mps 755 mmHg 79%
    12:00 +28°C° 1.7 mm 6 mps 755 mmHg 83%
    13:00 +27°C° 1.7 mm 7 mps 754 mmHg 86%
    14:00 +26°C° 1.7 mm 9 mps 754 mmHg 89%
    15:00 +26°C° 1.9 mm 10 mps 754 mmHg 89%
    16:00 +26°C° 1.9 mm 10 mps 754 mmHg 89%
    17:00 +26°C° 1.9 mm 11 mps 754 mmHg 89%
    18:00 +26°C° 5.6 mm 10 mps 755 mmHg 90%
    19:00 +26°C° 5.6 mm 10 mps 756 mmHg 91%
    20:00 +26°C° 5.6 mm 9 mps 756 mmHg 92%
    21:00 +26°C° 4.7 mm 9 mps 756 mmHg 92%
    22:00 +26°C° 4.7 mm 9 mps 756 mmHg 91%
    23:00 +26°C° 4.7 mm 9 mps 757 mmHg 91%

    Tomorrow, 22 August, Thursday

    Time Temperature Precipitation Wind Pressure Humidity
    00:00 +26°C° 3.4 mm 8 mps 756 mmHg 91%
    01:00 +26°C° 3.4 mm 8 mps 756 mmHg 92%
    02:00 +26°C° 3.4 mm 8 mps 755 mmHg 92%
    03:00 +26°C° 1.7 mm 8 mps 755 mmHg 91%
    04:00 +26°C° 1.7 mm 8 mps 755 mmHg 89%
    05:00 +26°C° 1.7 mm 8 mps 756 mmHg 87%
    06:00 +26°C° 0.8 mm 7 mps 756 mmHg 88%
    07:00 +26°C° 0.8 mm 7 mps 756 mmHg 88%
    08:00 +26°C° 0.8 mm 6 mps 757 mmHg 89%
    09:00 +27°C° 1.2 mm 7 mps 757 mmHg 87%
    10:00 +27°C° 1.2 mm 7 mps 757 mmHg 85%
    11:00 +28°C° 1.2 mm 7 mps 757 mmHg 83%
    12:00 +28°C° 0.8 mm 7 mps 757 mmHg 82%
    13:00 +28°C° 0.8 mm 7 mps 756 mmHg 82%
    14:00 +28°C° 0.8 mm 7 mps 756 mmHg 82%
    15:00 +28°C° 1 mm 6 mps 756 mmHg 83%
    16:00 +27°C° 1 mm 6 mps 756 mmHg 85%
    17:00 +27°C° 1 mm 6 mps 756 mmHg 86%
    18:00 +27°C° 0.9 mm 5 mps 756 mmHg 87%
    19:00 +26°C° 0.9 mm 5 mps 757 mmHg 89%
    20:00 +26°C° 0.9 mm 4 mps 758 mmHg 90%
    21:00 +26°C° 1.5 mm 4 mps 758 mmHg 90%
    22:00 +26°C° 1.5 mm 4 mps 758 mmHg 90%
    23:00 +26°C° 1.5 mm 4 mps 758 mmHg 90%

    Day after tomorrow, 23 August, Friday

    Time Temperature Precipitation Wind Pressure Humidity
    00:00 +26°C° 1.2 mm 4 mps 758 mmHg 90%
    01:00 +26°C° 1.2 mm 4 mps 757 mmHg 90%
    02:00 +26°C° 1.2 mm 4 mps 757 mmHg 90%
    03:00 +26°C° 0.5 mm 4 mps 757 mmHg 90%
    04:00 +26°C° 0.5 mm 4 mps 757 mmHg 90%
    05:00 +26°C° 0.5 mm 4 mps 757 mmHg 90%
    06:00 +26°C° 0.3 mm 4 mps 757 mmHg 89%
    07:00 +27°C° 0.3 mm 4 mps 758 mmHg 87%
    08:00 +27°C° 0.3 mm 4 mps 758 mmHg 86%
    09:00 +28°C° 0.8 mm 4 mps 758 mmHg 85%
    10:00 +28°C° 0.8 mm 5 mps 758 mmHg 84%
    11:00 +28°C° 0.8 mm 5 mps 758 mmHg 84%
    12:00 +28°C° 0.4 mm 5 mps 757 mmHg 82%
    13:00 +29°C° 0.4 mm 5 mps 757 mmHg 81%
    14:00 +29°C° 0.4 mm 5 mps 756 mmHg 80%
    15:00 +28°C° 0.2 mm 5 mps 757 mmHg 81%
    16:00 +28°C° 0.2 mm 5 mps 757 mmHg 83%
    17:00 +28°C° 0.2 mm 5 mps 757 mmHg 84%
    18:00 +27°C° 0.8 mm 5 mps 757 mmHg 86%
    19:00 +27°C° 0.8 mm 5 mps 758 mmHg 87%
    20:00 +27°C° 0.8 mm 4 mps 758 mmHg 88%
    21:00 +26°C° 1 mm 4 mps 758 mmHg 88%
    22:00 +26°C° 1 mm 4 mps 758 mmHg 88%
    23:00 +26°C° 1 mm 3 mps 758 mmHg 88%

    24 August, Saturday

    Time Temperature Precipitation Wind Pressure Humidity
    00:00 +26°C° 0.5 mm 4 mps 758 mmHg 89%
    01:00 +26°C° 0.5 mm 4 mps 757 mmHg 89%
    02:00 +26°C° 0.5 mm 4 mps 757 mmHg 89%
    03:00 +26°C° 1.2 mm 3 mps 757 mmHg 89%
    04:00 +26°C° 1.2 mm 3 mps 757 mmHg 89%
    05:00 +26°C° 1.2 mm 2 mps 757 mmHg 89%
    06:00 +27°C° 1.6 mm 2 mps 757 mmHg 87%
    07:00 +27°C° 1.6 mm 2 mps 758 mmHg 85%
    08:00 +28°C° 1.6 mm 2 mps 758 mmHg 83%
    09:00 +27°C° 0.9 mm 2 mps 758 mmHg 84%
    10:00 +27°C° 0.9 mm 3 mps 758 mmHg 84%
    11:00 +27°C° 0.9 mm 3 mps 758 mmHg 85%
    12:00 +28°C° 0.2 mm 4 mps 757 mmHg 84%
    13:00 +28°C° 0.2 mm 4 mps 757 mmHg 83%
    14:00 +28°C° 0.2 mm 5 mps 756 mmHg 82%
    15:00 +28°C° 0.9 mm 5 mps 756 mmHg 84%
    16:00 +27°C° 0.9 mm 5 mps 756 mmHg 87%
    17:00 +26°C° 0.9 mm 5 mps 756 mmHg 90%
    18:00 +26°C° 2 mm 5 mps 757 mmHg 91%
    19:00 +26°C° 2 mm 4 mps 757 mmHg 92%
    20:00 +26°C° 2 mm 4 mps 758 mmHg 93%
    21:00 +26°C° 1.9 mm 4 mps 758 mmHg 93%
    22:00 +26°C° 1.9 mm 3 mps 758 mmHg 93%
    23:00 +26°C° 1.9 mm 3 mps 758 mmHg 93%

    25 August, Sunday

    Time Temperature Precipitation Wind Pressure Humidity
    00:00 +25°C° 2 mm 3 mps 757 mmHg 93%
    01:00 +25°C° 2 mm 3 mps 757 mmHg 94%
    02:00 +25°C° 2 mm 3 mps 756 mmHg 94%
    03:00 +25°C° 1.4 mm 3 mps 756 mmHg 93%
    04:00 +25°C° 1.4 mm 3 mps 756 mmHg 93%
    05:00 +25°C° 1.4 mm 3 mps 756 mmHg 93%
    06:00 +26°C° 1.5 mm 3 mps 756 mmHg 93%
    07:00 +26°C° 1.5 mm 3 mps 757 mmHg 92%
    08:00 +26°C° 1.5 mm 4 mps 757 mmHg 92%
    09:00 +26°C° 2.2 mm 4 mps 757 mmHg 92%
    10:00 +26°C° 2.2 mm 4 mps 757 mmHg 92%
    11:00 +26°C° 2.2 mm 4 mps 757 mmHg 93%
    12:00 +26°C° 3.5 mm 5 mps 757 mmHg 93%
    13:00 +26°C° 3.5 mm 5 mps 756 mmHg 94%
    14:00 +25°C° 3.5 mm 5 mps 756 mmHg 95%
    15:00 +25°C° 4.3 mm 5 mps 756 mmHg 95%
    16:00 +25°C° 4.3 mm 5 mps 756 mmHg 95%
    17:00 +24°C° 4.3 mm 6 mps 756 mmHg 95%
    18:00 +24°C° 8 mm 6 mps 756 mmHg 95%
    19:00 +24°C° 8 mm 6 mps 757 mmHg 95%
    20:00 +24°C° 8 mm 6 mps 757 mmHg 96%
    21:00 +24°C° 13.3 mm 7 mps 757 mmHg 95%
    22:00 +24°C° 13.3 mm 7 mps 757 mmHg 95%
    23:00 +24°C° 13.3 mm 7 mps 757 mmHg 95%

    26 August, Monday

    Time Temperature Precipitation Wind Pressure Humidity
    00:00 +24°C° 5.4 mm 7 mps 757 mmHg 94%
    01:00 +24°C° 5.4 mm 7 mps 756 mmHg 94%
    02:00 +24°C° 5.4 mm 6 mps 756 mmHg 93%
    03:00 +24°C° 1.9 mm 7 mps 756 mmHg 93%
    04:00 +26°C° 1.9 mm 7 mps 756 mmHg 92%
    05:00 +26°C° 1.9 mm 7 mps 756 mmHg 92%
    06:00 +26°C° 2.5 mm 7 mps 756 mmHg 92%
    07:00 +26°C° 2.5 mm 7 mps 756 mmHg 93%
    08:00 +26°C° 2.5 mm 7 mps 757 mmHg 93%
    09:00 +26°C° 2.4 mm 7 mps 757 mmHg 93%
    10:00 +26°C° 2.4 mm 6 mps 757 mmHg 92%
    11:00 +26°C° 2.4 mm 6 mps 757 mmHg 92%
    12:00 +26°C° 2.4 mm 6 mps 757 mmHg 92%
    13:00 +26°C° 2.4 mm 6 mps 756 mmHg 93%
    14:00 +26°C° 2.4 mm 6 mps 756 mmHg 93%
    15:00 +26°C° 2.6 mm 6 mps 756 mmHg 93%
    16:00 +26°C° 2.6 mm 6 mps 756 mmHg 93%
    17:00 +26°C° 2.6 mm 7 mps 756 mmHg 92%
    18:00 +26°C° 2.5 mm 6 mps 756 mmHg 92%
    19:00 +26°C° 2.5 mm 6 mps 757 mmHg 93%
    20:00 +26°C° 2.5 mm 5 mps 757 mmHg 93%
    21:00 +26°C° 2 mm 5 mps 758 mmHg 92%
    22:00 +26°C° 2 mm 5 mps 758 mmHg 92%
    23:00 +26°C° 2 mm 5 mps 758 mmHg 91%
    Show more